QPF
0.03 0.03 0.07 0.07 0.10 0.11 0.14 0.18 0.26 0.26 0.21 0.20 0.19 0.25 0.35 0.40 0.41 0.38 0.38 0.43 0.41 0.40 0.40 0.37 0.30 0.26 0.25 0.24 0.25 0.24 0.22 0.17 0.15 0.16 0.13 0.10 0.10 0.09 0.07 0.06 0.05 0.04 0.03
0.03 0.03 0.04 0.06 0.13 0.16 0.14 0.18 0.22 0.24 0.22 0.19 0.17 0.22 0.29 0.32 0.32 0.32 0.31 0.29 0.29 0.31 0.32 0.34 0.31 0.28 0.27 0.26 0.25 0.26 0.27 0.19 0.15 0.18 0.17 0.14 0.13 0.10 0.06 0.04 0.03 0.02 0.01
0.02 0.02 0.03 0.04 0.08 0.11 0.13 0.18 0.22 0.24 0.23 0.20 0.20 0.23 0.24 0.27 0.28 0.28 0.28 0.26 0.22 0.22 0.24 0.28 0.27 0.26 0.26 0.25 0.23 0.22 0.21 0.18 0.14 0.13 0.17 0.17 0.15 0.11 0.08 0.04 0.03 0.02 0.02
0.04 0.03 0.04 0.05 0.06 0.07 0.11 0.15 0.20 0.24 0.28 0.29 0.31 0.27 0.23 0.22 0.22 0.24 0.22 0.20 0.19 0.19 0.19 0.23 0.26 0.22 0.20 0.21 0.20 0.19 0.16 0.16 0.14 0.10 0.10 0.12 0.14 0.13 0.12 0.08 0.05 0.03 0.02
0.03 0.03 0.03 0.05 0.04 0.06 0.09 0.13 0.19 0.23 0.26 0.33 0.38 0.41 0.34 0.26 0.22 0.20 0.19 0.17 0.17 0.16 0.15 0.15 0.18 0.20 0.18 0.15 0.13 0.12 0.12 0.11 0.10 0.08 0.07 0.07 0.08 0.10 0.11 0.09 0.06 0.04 0.02
0.02 0.02 0.02 0.02 0.02 0.03 0.05 0.09 0.16 0.21 0.23 0.27 0.28 0.28 0.26 0.24 0.22 0.18 0.16 0.16 0.16 0.17 0.17 0.16 0.15 0.16 0.16 0.13 0.11 0.10 0.09 0.09 0.09 0.08 0.07 0.06 0.06 0.07 0.08 0.09 0.07 0.05 0.03
0.02 0.03 0.03 0.03 0.03 0.03 0.05 0.07 0.10 0.15 0.19 0.21 0.21 0.18 0.20 0.18 0.18 0.21 0.21 0.20 0.18 0.17 0.18 0.17 0.15 0.14 0.13 0.12 0.11 0.10 0.09 0.08 0.08 0.08 0.07 0.06 0.05 0.04 0.05 0.05 0.06 0.04 0.03
0.04 0.04 0.03 0.04 0.03 0.05 0.05 0.06 0.08 0.08 0.11 0.12 0.12 0.13 0.17 0.17 0.14 0.15 0.17 0.17 0.17 0.16 0.16 0.15 0.15 0.14 0.13 0.11 0.10 0.09 0.08 0.07 0.06 0.06 0.05 0.04 0.03 0.03 0.02 0.02 0.02 0.02 0.02
0.05 0.05 0.04 0.04 0.04 0.03 0.04 0.05 0.06 0.06 0.06 0.06 0.07 0.09 0.12 0.12 0.12 0.11 0.12 0.15 0.16 0.15 0.13 0.11 0.11 0.11 0.11 0.09 0.06 0.05 0.04 0.04 0.03 0.03 0.02 0.02 0.01 0.01 0.01 0.02 0.02 0.02 0.02
0.03 0.04 0.03 0.04 0.04 0.04 0.04 0.03 0.04 0.05 0.06 0.06 0.05 0.06 0.08 0.09 0.09 0.08 0.08 0.08 0.08 0.09 0.09 0.08 0.07 0.06 0.05 0.04 0.03 0.02 0.02 0.02 0.02 0.02 0.02 0.02 0.02 0.01 0.01 0.01 0.01 0.01 0.01
0.02 0.03 0.03 0.03 0.03 0.04 0.05 0.06 0.05 0.06 0.06 0.06 0.06 0.06 0.06 0.07 0.07 0.08 0.07 0.06 0.05 0.05 0.06 0.05 0.04 0.04 0.03 0.02 0.02 0.01 0.01 0.02 0.02 0.01 0.01 0.01 0.01 0.01 0.00 0.00 0.00 0.00 0.00
0.01 0.03 0.03 0.03 0.03 0.04 0.05 0.07 0.07 0.07 0.08 0.07 0.06 0.06 0.05 0.04 0.05 0.05 0.05 0.05 0.05 0.04 0.03 0.02 0.02 0.02 0.02 0.02 0.02 0.01 0.01 0.01 0.01 0.00 0.00 0.00 0.00 0.00 0.00 0.00 0.00 0.00 0.00
0.03 0.04 0.05 0.05 0.04 0.04 0.04 0.05 0.06 0.06 0.06 0.07 0.05 0.04 0.04 0.04 0.04 0.03 0.02 0.02 0.02 0.03 0.02 0.01 0.01 0.01 0.00 0.01 0.00 0.01 0.01 0.00 0.00 0.00 0.00 0.00 0.00 0.00 0.00 0.00 0.00 0.00 0.00
0.04 0.04 0.06 0.06 0.06 0.06 0.05 0.05 0.05 0.06 0.06 0.06 0.05 0.05 0.05 0.05 0.04 0.04 0.03 0.02 0.01 0.01 0.01 0.01 0.00 0.00 0.00 0.00 0.00 0.00 0.00 0.00 0.00 0.00 0.00 0.00 0.00 0.00 0.00 0.00 0.00 0.01 0.01
0.04 0.05 0.07 0.07 0.07 0.07 0.07 0.07 0.06 0.06 0.06 0.07 0.07 0.07 0.05 0.04 0.03 0.03 0.03 0.03 0.02 0.01 0.01 0.00 0.00 0.00 0.00 0.00 0.00 0.00 0.00 0.01 0.01 0.00 0.00 0.00 0.00 0.00 0.00 0.00 0.00 0.00 0.01
0.06 0.07 0.08 0.08 0.08 0.08 0.08 0.08 0.08 0.08 0.06 0.07 0.08 0.07 0.06 0.04 0.03 0.02 0.02 0.02 0.01 0.01 0.01 0.00 0.00 0.00 0.00 0.00 0.00 0.00 0.01 0.01 0.01 0.01 0.01 0.00 0.00 0.00 0.00 0.00 0.00 0.00 0.00
0.09 0.08 0.08 0.09 0.09 0.10 0.10 0.10 0.09 0.08 0.06 0.05 0.06 0.06 0.06 0.06 0.05 0.03 0.02 0.02 0.01 0.01 0.01 0.01 0.00 0.00 0.00 0.00 0.00 0.00 0.01 0.02 0.02 0.02 0.02 0.01 0.00 0.00 0.00 0.00 0.01 0.01 0.00
0.10 0.09 0.09 0.10 0.09 0.08 0.08 0.08 0.08 0.07 0.06 0.05 0.05 0.04 0.04 0.04 0.04 0.03 0.03 0.02 0.02 0.02 0.02 0.01 0.01 0.01 0.00 0.00 0.00 0.00 0.01 0.03 0.02 0.01 0.02 0.03 0.02 0.00 0.00 0.01 0.04 0.06 0.03
0.12 0.12 0.10 0.09 0.08 0.07 0.07 0.07 0.07 0.08 0.07 0.07 0.06 0.04 0.03 0.03 0.04 0.03 0.03 0.03 0.03 0.03 0.03 0.02 0.03 0.02 0.00 0.00 0.00 0.00 0.01 0.03 0.02 0.01 0.00 0.01 0.01 0.00 0.00 0.02 0.07 0.07 0.04
0.10 0.10 0.10 0.09 0.07 0.06 0.05 0.05 0.05 0.05 0.05 0.04 0.04 0.03 0.03 0.04 0.04 0.04 0.03 0.03 0.03 0.03 0.02 0.02 0.02 0.02 0.01 0.00 0.00 0.00 0.01 0.03 0.03 0.03 0.02 0.00 0.00 0.00 0.00 0.01 0.03 0.03 0.02
0.08 0.08 0.09 0.08 0.07 0.05 0.05 0.05 0.04 0.04 0.03 0.02 0.02 0.02 0.03 0.03 0.03 0.03 0.04 0.04 0.03 0.02 0.02 0.02 0.02 0.01 0.00 0.00 0.00 0.00 0.01 0.02 0.03 0.03 0.03 0.01 0.00 0.00 0.00 0.00 0.01 0.00 0.00
0.07 0.07 0.06 0.05 0.05 0.04 0.05 0.05 0.05 0.03 0.02 0.02 0.02 0.02 0.02 0.01 0.02 0.03 0.04 0.03 0.03 0.03 0.02 0.03 0.03 0.02 0.01 0.00 0.00 0.00 0.00 0.00 0.02 0.02 0.01 0.00 0.00 0.00 0.00 0.00 0.00 0.00 0.00
0.06 0.06 0.05 0.04 0.06 0.06 0.06 0.06 0.04 0.02 0.01 0.02 0.02 0.02 0.01 0.01 0.01 0.02 0.02 0.01 0.02 0.02 0.02 0.02 0.02 0.02 0.02 0.00 0.00 0.00 0.00 0.00 0.01 0.01 0.00 0.00 0.00 0.00 0.00 0.00 0.00 0.00 0.01
0.06 0.05 0.05 0.05 0.06 0.07 0.06 0.05 0.03 0.02 0.02 0.03 0.03 0.03 0.01 0.01 0.01 0.01 0.00 0.00 0.01 0.01 0.01 0.01 0.01 0.02 0.02 0.01 0.01 0.01 0.01 0.00 0.00 0.01 0.01 0.00 0.00 0.00 0.00 0.00 0.00 0.00 0.00
0.07 0.07 0.07 0.06 0.05 0.05 0.04 0.03 0.04 0.03 0.04 0.04 0.04 0.02 0.01 0.01 0.02 0.01 0.00 0.00 0.00 0.00 0.01 0.01 0.01 0.02 0.01 0.00 0.00 0.00 0.00 0.00 0.00 0.01 0.01 0.01 0.01 0.01 0.01 0.00 0.00 0.01 0.00
0.07 0.07 0.06 0.06 0.04 0.02 0.03 0.03 0.03 0.03 0.04 0.03 0.02 0.01 0.01 0.01 0.01 0.01 0.00 0.00 0.00 0.00 0.00 0.00 0.00 0.00 0.00 0.00 0.00 0.00 0.00 0.00 0.00 0.00 0.02 0.01 0.01 0.00 0.00 0.00 0.00 0.00 0.00
MSLP
1002.29 1002.17 1002.17 1002.33 1002.65 1003.14 1003.79 1004.57 1005.44 1006.36 1007.29 1008.20 1009.08 1009.92 1010.71 1011.46 1012.15 1012.77 1013.31 1013.75 1014.09 1014.32 1014.46 1014.55 1014.62 1014.74 1014.93 1015.22 1015.63 1016.15 1016.75 1017.39 1018.03 1018.62 1019.15 1019.59 1019.95 1020.23 1020.46 1020.65 1020.82 1020.98 1021.13
1003.59 1003.43 1003.32 1003.31 1003.42 1003.68 1004.11 1004.71 1005.44 1006.28 1007.18 1008.10 1009.01 1009.88 1010.70 1011.47 1012.17 1012.79 1013.32 1013.77 1014.11 1014.36 1014.52 1014.63 1014.72 1014.84 1015.01 1015.28 1015.66 1016.14 1016.71 1017.33 1017.97 1018.58 1019.14 1019.63 1020.03 1020.36 1020.63 1020.87 1021.08 1021.28 1021.48
1005.09 1004.91 1004.71 1004.52 1004.40 1004.42 1004.61 1004.98 1005.53 1006.24 1007.05 1007.93 1008.84 1009.73 1010.58 1011.38 1012.11 1012.76 1013.32 1013.80 1014.18 1014.47 1014.68 1014.83 1014.94 1015.06 1015.21 1015.44 1015.76 1016.18 1016.69 1017.26 1017.87 1018.47 1019.04 1019.55 1019.99 1020.37 1020.70 1020.99 1021.25 1021.50 1021.75
1006.62 1006.44 1006.16 1005.84 1005.53 1005.33 1005.27 1005.41 1005.76 1006.30 1007.00 1007.81 1008.68 1009.57 1010.45 1011.28 1012.06 1012.76 1013.39 1013.93 1014.38 1014.74 1015.01 1015.20 1015.34 1015.46 1015.59 1015.77 1016.02 1016.36 1016.79 1017.29 1017.84 1018.40 1018.95 1019.47 1019.93 1020.35 1020.71 1021.05 1021.36 1021.66 1021.95
1007.99 1007.85 1007.55 1007.15 1006.72 1006.34 1006.09 1006.03 1006.18 1006.55 1007.12 1007.84 1008.66 1009.53 1010.42 1011.29 1012.12 1012.89 1013.60 1014.22 1014.76 1015.19 1015.53 1015.77 1015.94 1016.06 1016.17 1016.30 1016.48 1016.73 1017.07 1017.49 1017.96 1018.47 1018.98 1019.47 1019.94 1020.36 1020.75 1021.10 1021.44 1021.76 1022.08
1009.09 1009.03 1008.78 1008.38 1007.90 1007.43 1007.06 1006.85 1006.85 1007.07 1007.51 1008.12 1008.87 1009.71 1010.59 1011.49 1012.37 1013.21 1014.00 1014.71 1015.32 1015.84 1016.24 1016.53 1016.72 1016.84 1016.92 1017.00 1017.12 1017.29 1017.55 1017.88 1018.27 1018.71 1019.17 1019.62 1020.05 1020.46 1020.83 1021.18 1021.52 1021.84 1022.15
1009.86 1009.92 1009.77 1009.45 1009.02 1008.56 1008.15 1007.87 1007.77 1007.89 1008.21 1008.72 1009.39 1010.18 1011.03 1011.93 1012.84 1013.73 1014.58 1015.36 1016.04 1016.62 1017.07 1017.39 1017.60 1017.72 1017.78 1017.82 1017.88 1017.99 1018.18 1018.44 1018.76 1019.13 1019.53 1019.92 1020.30 1020.66 1020.99 1021.30 1021.60 1021.89 1022.17
1010.34 1010.54 1010.54 1010.37 1010.06 1009.69 1009.33 1009.06 1008.93 1008.98 1009.22 1009.64 1010.23 1010.94 1011.74 1012.62 1013.52 1014.43 1015.31 1016.12 1016.85 1017.46 1017.94 1018.28 1018.50 1018.60 1018.65 1018.66 1018.68 1018.75 1018.89 1019.09 1019.36 1019.67 1020.01 1020.34 1020.66 1020.96 1021.22 1021.47 1021.71 1021.94 1022.16
1010.61 1010.95 1011.12 1011.14 1011.01 1010.80 1010.56 1010.36 1010.26 1010.30 1010.48 1010.83 1011.32 1011.95 1012.68 1013.49 1014.36 1015.24 1016.11 1016.93 1017.66 1018.28 1018.77 1019.11 1019.32 1019.42 1019.44 1019.44 1019.44 1019.49 1019.60 1019.77 1020.01 1020.28 1020.56 1020.84 1021.10 1021.32 1021.52 1021.69 1021.85 1022.01 1022.17
1010.80 1011.26 1011.60 1011.81 1011.89 1011.87 1011.80 1011.72 1011.69 1011.75 1011.91 1012.19 1012.60 1013.13 1013.77 1014.50 1015.29 1016.11 1016.94 1017.72 1018.43 1019.03 1019.50 1019.82 1020.02 1020.11 1020.12 1020.11 1020.11 1020.15 1020.26 1020.42 1020.64 1020.88 1021.14 1021.37 1021.57 1021.74 1021.86 1021.96 1022.05 1022.14 1022.23
1011.03 1011.59 1012.07 1012.45 1012.72 1012.89 1013.00 1013.07 1013.14 1013.24 1013.40 1013.65 1013.98 1014.41 1014.94 1015.56 1016.25 1016.99 1017.74 1018.47 1019.12 1019.68 1020.12 1020.42 1020.60 1020.67 1020.69 1020.68 1020.68 1020.73 1020.84 1021.01 1021.22 1021.46 1021.69 1021.90 1022.06 1022.18 1022.25 1022.29 1022.32 1022.35 1022.38
1011.41 1012.03 1012.61 1013.12 1013.55 1013.89 1014.16 1014.37 1014.54 1014.70 1014.88 1015.09 1015.36 1015.70 1016.12 1016.63 1017.21 1017.85 1018.51 1019.16 1019.75 1020.27 1020.66 1020.94 1021.09 1021.16 1021.18 1021.17 1021.18 1021.24 1021.36 1021.54 1021.76 1022.00 1022.23 1022.42 1022.56 1022.64 1022.68 1022.68 1022.67 1022.66 1022.65
1012.01 1012.65 1013.28 1013.87 1014.40 1014.87 1015.27 1015.59 1015.86 1016.09 1016.28 1016.48 1016.69 1016.95 1017.28 1017.68 1018.15 1018.68 1019.25 1019.82 1020.35 1020.81 1021.16 1021.41 1021.56 1021.62 1021.63 1021.63 1021.66 1021.73 1021.86 1022.05 1022.27 1022.51 1022.73 1022.92 1023.05 1023.12 1023.14 1023.12 1023.08 1023.05 1023.02
1012.84 1013.47 1014.11 1014.73 1015.31 1015.85 1016.33 1016.75 1017.08 1017.36 1017.58 1017.76 1017.94 1018.14 1018.37 1018.68 1019.05 1019.49 1019.96 1020.46 1020.92 1021.33 1021.66 1021.89 1022.02 1022.08 1022.10 1022.11 1022.14 1022.21 1022.35 1022.54 1022.76 1023.00 1023.22 1023.40 1023.52 1023.59 1023.60 1023.57 1023.53 1023.48 1023.43
1013.86 1014.46 1015.07 1015.68 1016.27 1016.83 1017.35 1017.81 1018.20 1018.51 1018.74 1018.92 1019.07 1019.22 1019.39 1019.61 1019.90 1020.25 1020.65 1021.07 1021.48 1021.85 1022.15 1022.36 1022.49 1022.56 1022.58 1022.59 1022.62 1022.70 1022.83 1023.01 1023.23 1023.46 1023.67 1023.84 1023.96 1024.02 1024.03 1024.00 1023.95 1023.89 1023.84
1014.98 1015.56 1016.12 1016.68 1017.24 1017.79 1018.31 1018.78 1019.19 1019.51 1019.76 1019.94 1020.07 1020.17 1020.29 1020.45 1020.66 1020.94 1021.27 1021.63 1021.99 1022.32 1022.60 1022.81 1022.94 1023.01 1023.04 1023.06 1023.10 1023.17 1023.29 1023.46 1023.66 1023.87 1024.07 1024.23 1024.35 1024.40 1024.41 1024.37 1024.31 1024.24 1024.18
1016.12 1016.66 1017.16 1017.67 1018.17 1018.67 1019.16 1019.62 1020.02 1020.35 1020.60 1020.78 1020.89 1020.97 1021.05 1021.15 1021.31 1021.52 1021.79 1022.09 1022.41 1022.72 1022.98 1023.18 1023.32 1023.40 1023.45 1023.48 1023.51 1023.59 1023.70 1023.85 1024.03 1024.22 1024.40 1024.55 1024.65 1024.70 1024.69 1024.65 1024.57 1024.48 1024.39
1017.16 1017.66 1018.11 1018.55 1018.98 1019.43 1019.87 1020.30 1020.68 1020.99 1021.24 1021.40 1021.51 1021.57 1021.61 1021.68 1021.79 1021.95 1022.17 1022.43 1022.71 1022.99 1023.24 1023.45 1023.60 1023.70 1023.76 1023.80 1023.85 1023.92 1024.03 1024.16 1024.33 1024.50 1024.66 1024.79 1024.87 1024.90 1024.88 1024.81 1024.72 1024.60 1024.47
1018.02 1018.48 1018.87 1019.24 1019.61 1019.99 1020.38 1020.76 1021.11 1021.41 1021.64 1021.80 1021.89 1021.94 1021.97 1022.01 1022.09 1022.21 1022.39 1022.62 1022.87 1023.14 1023.39 1023.60 1023.77 1023.89 1023.98 1024.04 1024.11 1024.18 1024.28 1024.41 1024.55 1024.70 1024.84 1024.95 1025.01 1025.02 1024.98 1024.89 1024.76 1024.61 1024.45
1018.62 1019.04 1019.39 1019.70 1020.00 1020.32 1020.66 1020.99 1021.31 1021.59 1021.81 1021.96 1022.06 1022.11 1022.14 1022.16 1022.22 1022.32 1022.48 1022.68 1022.93 1023.18 1023.44 1023.67 1023.86 1024.01 1024.13 1024.22 1024.31 1024.39 1024.49 1024.61 1024.73 1024.86 1024.97 1025.05 1025.09 1025.08 1025.02 1024.90 1024.74 1024.56 1024.35
1018.94 1019.32 1019.62 1019.88 1020.14 1020.41 1020.70 1021.00 1021.29 1021.55 1021.77 1021.93 1022.04 1022.10 1022.14 1022.17 1022.23 1022.33 1022.49 1022.69 1022.93 1023.19 1023.46 1023.71 1023.94 1024.12 1024.27 1024.39 1024.50 1024.59 1024.68 1024.78 1024.88 1024.98 1025.06 1025.12 1025.13 1025.10 1025.01 1024.87 1024.69 1024.48 1024.24
1018.99 1019.34 1019.60 1019.83 1020.04 1020.28 1020.54 1020.81 1021.09 1021.35 1021.57 1021.75 1021.88 1021.98 1022.05 1022.11 1022.19 1022.31 1022.48 1022.69 1022.95 1023.23 1023.53 1023.81 1024.06 1024.28 1024.47 1024.61 1024.72 1024.81 1024.89 1024.96 1025.03 1025.09 1025.13 1025.15 1025.14 1025.08 1024.98 1024.83 1024.63 1024.40 1024.14
1018.82 1019.13 1019.37 1019.57 1019.78 1019.99 1020.24 1020.51 1020.79 1021.06 1021.30 1021.51 1021.69 1021.82 1021.94 1022.05 1022.17 1022.33 1022.53 1022.77 1023.06 1023.37 1023.69 1024.00 1024.29 1024.53 1024.73 1024.89 1025.00 1025.07 1025.12 1025.15 1025.17 1025.18 1025.17 1025.15 1025.10 1025.02 1024.91 1024.75 1024.56 1024.32 1024.06
1018.49 1018.78 1019.01 1019.21 1019.42 1019.64 1019.89 1020.17 1020.46 1020.76 1021.04 1021.29 1021.51 1021.71 1021.88 1022.05 1022.23 1022.43 1022.67 1022.95 1023.27 1023.61 1023.96 1024.29 1024.60 1024.86 1025.07 1025.22 1025.31 1025.35 1025.35 1025.33 1025.28 1025.22 1025.16 1025.08 1025.00 1024.91 1024.79 1024.64 1024.46 1024.25 1024.00
1018.09 1018.38 1018.62 1018.83 1019.06 1019.30 1019.57 1019.88 1020.20 1020.53 1020.85 1021.15 1021.43 1021.68 1021.92 1022.14 1022.37 1022.63 1022.91 1023.22 1023.56 1023.93 1024.30 1024.65 1024.96 1025.23 1025.42 1025.55 1025.61 1025.60 1025.54 1025.44 1025.32 1025.19 1025.06 1024.94 1024.83 1024.71 1024.60 1024.47 1024.32 1024.15 1023.94
1017.73 1018.02 1018.28 1018.53 1018.78 1019.06 1019.37 1019.70 1020.06 1020.42 1020.78 1021.13 1021.46 1021.76 1022.05 1022.32 1022.60 1022.89 1023.20 1023.53 1023.89 1024.26 1024.63 1024.98 1025.29 1025.54 1025.71 1025.80 1025.81 1025.75 1025.63 1025.46 1025.27 1025.07 1024.88 1024.71 1024.57 1024.45 1024.35 1024.26 1024.15 1024.03 1023.87
Thickness
5738 5738 5734 5735 5735 5735 5736 5737 5735 5733 5731 5730 5727 5724 5722 5721 5720 5719 5718 5715 5714 5715 5714 5715 5714 5714 5713 5713 5712 5711 5707 5705 5704 5700 5695 5694 5695 5692 5690 5687 5685 5682 5679
5721 5721 5722 5722 5721 5719 5722 5725 5725 5725 5724 5723 5722 5719 5717 5715 5713 5712 5709 5707 5707 5708 5708 5708 5708 5708 5707 5706 5705 5704 5701 5698 5699 5695 5688 5682 5680 5681 5680 5677 5674 5672 5669
5706 5706 5706 5707 5707 5708 5711 5715 5714 5716 5716 5715 5714 5713 5710 5706 5703 5701 5699 5698 5699 5700 5701 5701 5701 5700 5699 5697 5696 5697 5695 5691 5691 5690 5686 5679 5673 5668 5666 5665 5663 5661 5659
5692 5692 5692 5691 5693 5696 5700 5702 5704 5706 5706 5707 5705 5703 5700 5696 5692 5692 5689 5688 5688 5689 5691 5691 5690 5690 5689 5688 5687 5687 5687 5686 5681 5680 5679 5677 5675 5666 5656 5653 5652 5651 5648
5678 5678 5677 5677 5679 5683 5687 5689 5691 5693 5695 5696 5696 5693 5691 5687 5684 5682 5680 5678 5676 5676 5678 5678 5678 5677 5676 5676 5676 5676 5676 5676 5674 5671 5669 5667 5665 5663 5655 5645 5642 5640 5638
5668 5667 5667 5667 5667 5669 5673 5675 5677 5679 5681 5683 5683 5683 5681 5677 5674 5671 5668 5666 5664 5663 5663 5664 5664 5664 5664 5664 5664 5663 5663 5662 5661 5660 5659 5657 5654 5650 5648 5641 5635 5631 5627
5659 5657 5656 5655 5654 5655 5658 5662 5665 5665 5667 5669 5670 5670 5670 5668 5665 5661 5657 5655 5652 5650 5649 5650 5651 5651 5651 5652 5652 5651 5650 5649 5648 5647 5646 5646 5644 5642 5640 5635 5629 5624 5619
5650 5647 5645 5643 5642 5643 5645 5648 5650 5651 5652 5654 5656 5656 5656 5655 5652 5649 5646 5643 5641 5639 5638 5638 5639 5638 5639 5639 5639 5639 5638 5637 5637 5635 5633 5632 5632 5632 5630 5627 5623 5618 5613
5641 5638 5635 5632 5630 5630 5631 5634 5636 5637 5639 5641 5642 5642 5642 5641 5638 5636 5634 5632 5629 5628 5627 5628 5627 5627 5627 5627 5627 5626 5625 5626 5626 5623 5622 5622 5621 5621 5621 5619 5617 5612 5606
5633 5630 5626 5622 5620 5619 5620 5621 5623 5624 5626 5628 5629 5629 5629 5628 5626 5625 5623 5621 5619 5618 5617 5618 5617 5617 5616 5616 5616 5615 5615 5615 5614 5612 5611 5610 5610 5611 5610 5609 5607 5605 5600
5625 5622 5618 5614 5611 5610 5609 5609 5611 5612 5613 5614 5615 5616 5616 5615 5614 5613 5612 5611 5609 5609 5608 5608 5608 5608 5606 5606 5605 5605 5606 5605 5604 5602 5601 5599 5599 5599 5599 5597 5594 5591 5588
5617 5613 5610 5606 5603 5600 5599 5598 5599 5600 5600 5601 5602 5602 5602 5602 5602 5601 5601 5600 5600 5600 5599 5599 5599 5598 5597 5597 5597 5597 5596 5595 5593 5592 5591 5590 5589 5587 5585 5584 5582 5579 5576
5608 5604 5600 5596 5592 5590 5589 5587 5587 5588 5588 5589 5590 5590 5590 5590 5590 5590 5590 5590 5590 5590 5589 5589 5589 5588 5588 5588 5587 5587 5586 5585 5583 5581 5580 5577 5575 5573 5572 5571 5569 5567 5564
5599 5595 5591 5587 5583 5581 5580 5578 5577 5578 5578 5579 5579 5578 5578 5579 5579 5579 5579 5580 5580 5580 5580 5580 5579 5579 5578 5577 5577 5576 5576 5574 5572 5570 5568 5565 5562 5560 5559 5559 5555 5554 5551
5591 5586 5581 5577 5574 5572 5571 5570 5568 5568 5569 5569 5569 5568 5568 5568 5568 5569 5569 5570 5570 5570 5570 5570 5569 5568 5565 5562 5562 5565 5565 5563 5561 5559 5556 5553 5550 5548 5546 5545 5542 5540 5538
5583 5578 5573 5569 5566 5564 5563 5561 5560 5559 5560 5560 5559 5559 5559 5559 5558 5559 5559 5560 5560 5560 5559 5558 5556 5555 5552 5549 5550 5551 5553 5553 5551 5549 5547 5544 5541 5538 5535 5534 5531 5528 5526
5576 5570 5565 5561 5558 5557 5555 5554 5552 5552 5552 5551 5551 5551 5551 5551 5551 5551 5550 5550 5550 5550 5549 5546 5544 5542 5539 5539 5540 5540 5541 5542 5540 5539 5538 5538 5532 5528 5526 5525 5523 5520 5517
5569 5563 5558 5554 5551 5549 5548 5547 5546 5545 5544 5544 5544 5543 5543 5543 5542 5542 5541 5541 5540 5540 5539 5538 5535 5533 5530 5529 5530 5530 5532 5532 5531 5529 5527 5524 5519 5516 5514 5515 5516 5515 5513
5563 5557 5552 5548 5545 5544 5543 5542 5540 5539 5538 5538 5537 5536 5536 5536 5534 5533 5533 5533 5532 5532 5531 5530 5528 5524 5520 5520 5520 5520 5523 5524 5522 5519 5515 5514 5510 5506 5506 5508 5507 5507 5506
5556 5551 5547 5543 5541 5539 5539 5537 5535 5534 5533 5532 5531 5530 5529 5529 5528 5526 5526 5526 5526 5525 5524 5522 5520 5517 5513 5511 5512 5513 5516 5515 5513 5510 5506 5503 5501 5499 5498 5498 5498 5497 5496
5551 5547 5543 5540 5538 5536 5535 5533 5531 5529 5529 5528 5526 5525 5524 5523 5522 5520 5520 5520 5519 5518 5517 5515 5512 5510 5507 5504 5505 5504 5505 5505 5505 5503 5500 5496 5494 5493 5492 5491 5491 5489 5488
5547 5544 5541 5537 5534 5533 5531 5529 5526 5525 5524 5522 5521 5520 5519 5519 5517 5515 5514 5514 5513 5512 5510 5508 5506 5503 5501 5499 5497 5497 5496 5495 5496 5495 5493 5490 5489 5488 5487 5487 5486 5485 5485
5545 5541 5538 5534 5531 5529 5527 5524 5522 5521 5519 5517 5516 5515 5514 5512 5511 5510 5509 5509 5508 5507 5506 5504 5501 5498 5495 5492 5491 5490 5490 5489 5488 5488 5486 5486 5485 5484 5483 5482 5482 5481 5482
5543 5539 5536 5532 5528 5526 5524 5521 5519 5517 5515 5512 5510 5509 5508 5507 5506 5505 5505 5503 5502 5501 5500 5499 5496 5493 5490 5487 5485 5486 5485 5484 5483 5483 5483 5483 5482 5480 5479 5479 5480 5480 5480
5541 5537 5533 5529 5525 5523 5520 5518 5516 5513 5510 5508 5507 5506 5505 5502 5499 5495 5492 5491 5487 5487 5490 5490 5489 5487 5483 5477 5476 5477 5478 5476 5475 5475 5479 5481 5482 5481 5480 5480 5480 5479 5478
5538 5534 5530 5527 5523 5520 5516 5514 5511 5509 5507 5506 5505 5504 5502 5499 5497 5493 5487 5482 5482 5480 5481 5480 5480 5478 5476 5475 5474 5474 5474 5474 5473 5473 5477 5479 5478 5477 5476 5476 5475 5475 5473